Location: Crescent
(42.8242°N, 73.7329°W)
Time: 17:33:25
(UTC+00:00)

Vanguard 1 Rocket - Pass Details

Date: 25 February 2026
Orbit: 653 x 4214 km, 34.3° (Epoch: 8 March)

Event Time Altitude Azimuth Distance (km) Brightness Sun altitude
Rises 15:17:14 0° 210° (SSW) 3,212 10.5 32.4°
Reaches altitude 10° 15:19:48 10° 194° (SSW) 2,507 10.4 32.7°
Maximum altitude 15:24:17 22° 143° (SE) 2,210 11.6 33.1°
Drops below altitude 10° 15:30:50 10° 96° (E) 3,826 11.1 33.7°
Sets 15:35:57 0° 85° (E) 5,482 11.6 34.2°
